Terminal Aerodrome Forecast
Issued by NWS

Home | Current Version | Previous Version | Text Only | Print | Product List | Glossary On
Versions: 1 2 3 4 5 6 7 8 9 10 11 12 13 14 15 16 17 18 19 20 21 22 23 24 25 26 27 28 29 30 31 32 33 34 35 36 37 38 39 40
000
FTUS43 KGRB 261100
TAFRHI
TAF
KRHI 261132Z 2612/2712 VRB03KT 6SM BR SCT020 BKN070
     FM262000 33004KT 5SM -SHSN SCT012 BKN030
     FM270200 32007KT 6SM -SN BR SCT010 OVC020=

USA.gov is the U.S. government's official web portal to all federal, state and local government web resources and services.